Meridian, MS

9:46 AM CDT on September 30, 2016 (GMT -0500)
Meridian Naval Air Station

Weather History for KNMM - April, 2013

Change the Weather History Date:

Thursday, April 18, 2013

  Actual Average Record
Temperature  
Mean Temperature 73 °F -  
Max Temperature 82 °F 73 °F 91 °F (2006)
Min Temperature 64 °F 51 °F 33 °F (1997)
Cooling Degree Days 8    
Growing Degree Days 23 (Base 50)    
Moisture  
Dew Point 63 °F    
Average Humidity 72    
Maximum Humidity 90    
Minimum Humidity 53    
Precipitation  
Precipitation 0.05 in - - ()
Sea Level Pressure  
Sea Level Pressure 29.90 in    
Wind  
Wind Speed 7 mph (SSE)    
Max Wind Speed 17 mph    
Max Gust Speed 29 mph    
Visibility 10 miles    
Events Rain    
Averages and records for this station are not official NWS values.
T = Trace of Precipitation, MM = Missing Value Source: NWS Daily Summary

Daily Weather History Graph

Daily Weather History Graph

Search for Another Location

Airport or City:

Trip Planner

Search our weather history database for the weather conditions in past years. The results will help you decide how hot, cold, wet, or windy it might be!

Date:

Astronomy

Apr. 18, 2013 Rise Set
Actual Time 6:21 AM CDT 7:26 PM CDT
Civil Twilight 5:55 AM CDT 7:51 PM CDT
Nautical Twilight 5:25 AM CDT 8:22 PM CDT
Astronomical Twilight 4:54 AM CDT 8:53 PM CDT
Moon 12:36 PM CDT (4/18) 1:36 AM CDT (4/18)
Length of Visible Light 13h 56m
Length of Day
13h 05m
First Quarter, 52% of the Moon is Illuminated
Apr 18
First Quarter
Apr 25
Full
May 2
Last Quarter
May 9
New
May 17
First Quarter

Hourly Weather History & Observations

Time (CDT) Temp. Heat Index Dew Point Humidity Pressure Visibility Wind Dir Wind Speed Gust Speed Precip Events Conditions
12:56 AM 70.0 °F - 64.9 °F 84% 30.02 in 10.0 mi SSE 5.8 mph - N/A   Clear
1:56 AM 69.1 °F - 62.1 °F 78% 30.01 in 10.0 mi SSE 5.8 mph - N/A   Clear
2:56 AM 68.0 °F - 61.0 °F 78% 29.99 in 10.0 mi SSE 5.8 mph - N/A   Scattered Clouds
3:56 AM 66.0 °F - 60.1 °F 81% 29.96 in 10.0 mi SE 3.5 mph - N/A   Clear
4:56 AM 64.9 °F - 60.1 °F 84% 29.95 in 10.0 mi SE 4.6 mph - N/A   Clear
5:56 AM 64.0 °F - 60.1 °F 87% 29.95 in 10.0 mi SSE 3.5 mph - N/A   Clear
6:56 AM 64.0 °F - 61.0 °F 90% 29.97 in 10.0 mi SE 3.5 mph - N/A   Clear
6:58 AM 64.4 °F - 60.8 °F 88% 29.95 in 10.0 mi SE 4.6 mph - N/A   Mostly Cloudy
7:56 AM 66.0 °F - 61.0 °F 84% 29.98 in 10.0 mi SSE 5.8 mph - N/A   Mostly Cloudy
8:56 AM 69.1 °F - 62.1 °F 78% 29.97 in 10.0 mi SSE 8.1 mph 20.7 mph N/A   Mostly Cloudy
9:56 AM 72.0 °F - 64.0 °F 76% 29.96 in 10.0 mi SSE 8.1 mph - N/A   Mostly Cloudy
10:56 AM 75.0 °F - 62.1 °F 64% 29.95 in 10.0 mi South 11.5 mph 23.0 mph N/A   Clear
11:56 AM 78.1 °F - 62.1 °F 58% 29.95 in 10.0 mi South 10.4 mph 18.4 mph N/A   Mostly Cloudy
12:56 PM 80.1 °F 81.2 °F 62.1 °F 54% 29.93 in 10.0 mi SSE 11.5 mph 23.0 mph N/A   Mostly Cloudy
1:56 PM 80.1 °F 81.7 °F 64.0 °F 58% 29.92 in 10.0 mi SSE 8.1 mph 16.1 mph N/A   Mostly Cloudy
2:56 PM 82.0 °F 83.8 °F 64.9 °F 56% 29.90 in 10.0 mi South 8.1 mph - N/A   Mostly Cloudy
3:56 PM 82.9 °F 84.4 °F 64.0 °F 53% 29.86 in 10.0 mi South 10.4 mph 19.6 mph N/A   Mostly Cloudy
4:56 PM 82.9 °F 84.4 °F 64.0 °F 53% 29.85 in 10.0 mi South 11.5 mph 19.6 mph N/A   Mostly Cloudy
5:56 PM 80.1 °F 81.7 °F 64.0 °F 58% 29.83 in 10.0 mi South 8.1 mph 18.4 mph N/A   Overcast
6:56 PM 78.1 °F - 64.9 °F 64% 29.80 in 10.0 mi SSE 6.9 mph 20.7 mph N/A   Overcast
7:56 PM 75.9 °F - 66.0 °F 71% 29.80 in 10.0 mi SSE 11.5 mph 18.4 mph N/A   Mostly Cloudy
8:56 PM 75.9 °F - 66.0 °F 71% 29.80 in 10.0 mi SSE 11.5 mph 19.6 mph N/A   Mostly Cloudy
9:37 PM 75.2 °F - 66.2 °F 73% 29.78 in 10.0 mi SSE 12.7 mph 26.5 mph N/A   Mostly Cloudy
9:56 PM 75.0 °F - 66.9 °F 76% 29.80 in 10.0 mi South 17.3 mph 28.8 mph N/A   Overcast
10:56 PM 75.9 °F - 66.9 °F 74% 29.79 in 10.0 mi South 11.5 mph 24.2 mph N/A   Overcast
11:56 PM 73.9 °F - 68.0 °F 82% 29.79 in 3.0 mi SSW 8.1 mph 25.3 mph 0.05 in Rain Heavy Rain